Location: Yecla
(38.6122°N, 1.1101°W)
Time: 21:42:48
(UTC+02:00)

ISS - Visible Passes

Search period start: 25 April 2018 00:00
Search period end: 05 May 2018 00:00
Orbit: 403 x 406 km, 51.6° (Epoch: 26 April)

Date Brightness Start Highest point End Pass type
(mag) Time Alt. Az. Time Alt. Az. Time Alt. Az.
30 Apr -1.3 06:08:49 10° S 06:10:57 16° SE 06:13:05 10° E visible
02 May -2.9 06:00:18 16° SSW 06:02:32 41° SE 06:05:38 10° ENE visible
03 May -1.9 05:10:08 20° SE 05:10:20 21° SE 05:12:51 10° E visible
04 May -3.8 05:52:31 25° WSW 05:54:13 72° NW 05:57:29 10° NE visible
